Location: Casco Volunteer Fire Department
(44.5576°N, 87.6146°W)
Time: 05:35:20
(UTC+00:00)

ARIANE 5 R/B - Pass Details

Date: 22 January 2026
Orbit: 746 x 793 km, 98.8° (Epoch: 7 February)

Event Time Altitude Azimuth Distance (km) Brightness Sun altitude
Rises 12:31:17 0° 15° (NNE) 3,248 5.7 -8.6°
Reaches altitude 10° 12:33:37 10° 17° (NNE) 2,310 5.0 -8.2°
Maximum altitude 12:38:42 77° 103° (ESE) 782 2.7 -7.4°
Drops below altitude 10° 12:43:41 10° 190° (S) 2,267 5.1 -6.6°
Sets 12:45:58 0° 192° (SSW) 3,183 5.8 -6.2°
